Montgomery, AL

4:40 AM CST on February 12, 2016 (GMT -0600)
Maxwell Air Force Base

Weather History for KMXF - January, 2014

Change the Weather History Date:

Wednesday, January 29, 2014

  Actual Average Record
Temperature  
Mean Temperature 24 °F -  
Max Temperature 30 °F 57 °F 77 °F (2013)
Min Temperature 16 °F 38 °F 16 °F (2014)
Degree Days  
Heating Degree Days 42    
Moisture  
Dew Point 7 °F    
Average Humidity 53    
Maximum Humidity 82    
Minimum Humidity 36    
Precipitation  
Precipitation 0.00 in - - ()
Sea Level Pressure  
Sea Level Pressure 30.38 in    
Wind  
Wind Speed 9 mph (NNW)    
Max Wind Speed 13 mph    
Max Gust Speed 21 mph    
Visibility 10 miles    
Events      
Averages and records for this station are not official NWS values.
T = Trace of Precipitation, MM = Missing Value Source: NWS Daily Summary

Daily Weather History Graph

Daily Weather History Graph

Search for Another Location

Airport or City:

Trip Planner

Search our weather history database for the weather conditions in past years. The results will help you decide how hot, cold, wet, or windy it might be!

Date:

Astronomy

Jan. 29, 2014 Rise Set
Actual Time 6:41 AM CST 5:16 PM CST
Civil Twilight 6:15 AM CST 5:41 PM CST
Nautical Twilight 5:46 AM CST 6:11 PM CST
Astronomical Twilight 5:17 AM CST 6:40 PM CST
Moon 5:17 AM CST (1/29) 4:14 PM CST (1/29)
Length of Visible Light 11h 26m
Length of Day
10h 34m
Waning Crescent, 2% of the Moon is Illuminated
Jan 29
Waning Crescent
Jan 30
New
Feb 6
First Quarter
Feb 14
Full
Feb 22
Last Quarter

Hourly Weather History & Observations

Time (CST) Temp. Windchill Dew Point Humidity Pressure Visibility Wind Dir Wind Speed Gust Speed Precip Events Conditions
12:58 AM 22.1 °F 10.6 °F 13.3 °F 69% 30.33 in 8.0 mi NNW 11.5 mph - N/A   Partly Cloudy
1:58 AM 21.7 °F 10.8 °F 12.0 °F 66% 30.34 in 9.0 mi NNW 10.4 mph - N/A   Partly Cloudy
2:58 AM 21.0 °F 9.9 °F 10.0 °F 63% 30.33 in 10.0 mi NNW 10.4 mph 20.7 mph N/A   Partly Cloudy
3:58 AM 20.1 °F 8.1 °F 9.1 °F 62% 30.34 in 10.0 mi NNW 11.5 mph - N/A   Clear
4:58 AM 19.4 °F 9.5 °F 8.8 °F 63% 30.35 in 10.0 mi NNW 8.1 mph - N/A   Clear
5:58 AM 18.5 °F 5.5 °F 5.4 °F 57% 30.38 in 10.0 mi North 12.7 mph - N/A   Clear
6:58 AM 18.0 °F 6.1 °F 5.4 °F 58% 30.40 in 10.0 mi North 10.4 mph - N/A   Clear
7:58 AM 18.5 °F 6.8 °F 5.2 °F 56% 30.42 in 10.0 mi North 10.4 mph - N/A   Clear
8:58 AM 20.1 °F 8.8 °F 6.4 °F 55% 30.44 in 10.0 mi North 10.4 mph - N/A   Clear
9:58 AM 21.7 °F 10.2 °F 7.2 °F 54% 30.44 in 10.0 mi NNE 11.5 mph - N/A   Clear
10:58 AM 22.8 °F 13.6 °F 5.2 °F 47% 30.44 in 10.0 mi NNW 8.1 mph - N/A   Partly Cloudy
11:58 AM 24.6 °F 14.4 °F 5.2 °F 44% 30.44 in 10.0 mi North 10.4 mph - N/A   Mostly Cloudy
12:58 PM 26.4 °F 18.0 °F 5.7 °F 41% 30.39 in 10.0 mi NNW 8.1 mph - N/A   Partly Cloudy
1:58 PM 29.5 °F 21.8 °F 6.8 °F 38% 30.39 in 10.0 mi North 8.1 mph - N/A   Partly Cloudy
2:58 PM 30.7 °F 24.1 °F 6.6 °F 36% 30.37 in 10.0 mi Variable 6.9 mph - N/A   Clear
3:58 PM 30.4 °F 22.2 °F 7.5 °F 38% 30.37 in 10.0 mi NNW 9.2 mph - N/A   Clear
4:58 PM 29.3 °F 19.6 °F 6.3 °F 38% 30.36 in 10.0 mi NNW 11.5 mph - N/A   Clear
5:58 PM 27.7 °F 19.6 °F 5.0 °F 38% 30.36 in 10.0 mi North 8.1 mph - N/A   Clear
6:58 PM 25.9 °F 19.2 °F 3.4 °F 38% 30.38 in 10.0 mi NNW 5.8 mph - N/A   Clear
7:58 PM 24.6 °F 20.3 °F 4.6 °F 42% 30.39 in 10.0 mi NNW 3.5 mph - N/A   Clear
8:58 PM 23.0 °F 18.4 °F 4.6 °F 45% 30.39 in 10.0 mi NNW 3.5 mph - N/A   Clear
9:58 PM 18.3 °F - 10.9 °F 73% 30.39 in 10.0 mi NNW 1.2 mph - N/A   Clear
10:58 PM 17.4 °F - 11.7 °F 78% 30.38 in 10.0 mi Calm Calm - N/A   Clear
11:58 PM 16.3 °F - 11.7 °F 82% 30.37 in 10.0 mi North 2.3 mph - N/A   Clear